Flag for United Kingdom

Past Weather in Silverstone, England, United Kingdom — Yesterday and Last 2 Weeks

Now
42 °F

Quite cool.


Feels Like: 39 °F
Forecast: 53 / 40 °F
Wind: 5 mph from Northwest

Location: Church Lawford
Current Time: Sep 25, 2020 at 2:32:27 am
Latest Report: Sep 25, 2020 at 2:00 am
Visibility: 7 mi
Pressure29.41 "Hg
Humidity: 97%
Dew Point: 41 °F
Location of SilverstoneLocation

Past Weather in Silverstone — Graph

°F

Silverstone Temperature Yesterday

Maximum temperature yesterday: 55 °F (at 1:00 pm)
Minimum temperature yesterday: 42 °F (at 11:00 pm)
Average temperature yesterday: 49 °F

High & Low Weather Summary for the Past Weeks

 TemperatureHumidityPressure
High85 °F (Sep 15, 3:00 pm)100% (Sep 10, 7:00 am)30.45 "Hg (Sep 10, 7:00 am)
Low41 °F (Sep 25, 1:00 am)33% (Sep 22, 2:00 pm)29.32 "Hg (Sep 24, 8:00 am)
Average58 °F80%30.04 "Hg
* Reported Sep 10 1:00 am — Sep 25 1:00 am, Silverstone. Weather by CustomWeather, © 2020

Note: Actual official high and low records may vary slightly from our data, if they occured in-between our weather recording intervals... More about our weather records

Silverstone Weather History for the Previous 24 Hours

Scroll right to see more
 ConditionsComfort  
Time TempWeatherWind HumidityBarometerVisibility
1:00 am
Fri, Sep 25
41 °FQuite cool.5 mph97%29.41 "Hg7 mi
12:00 am42 °FQuite cool.6 mph97%29.38 "Hg7 mi
11:00 pm
Thu, Sep 24
42 °FQuite cool.2 mph93%29.35 "Hg28 mi
10:00 pm43 °FQuite cool.3 mph90%29.35 "Hg28 mi
9:00 pm45 °FQuite cool.2 mph90%29.35 "Hg28 mi
8:00 pm46 °FCool.3 mph87%29.32 "Hg31 mi
7:00 pm49 °FCool.6 mph82%29.32 "Hg31 mi
6:00 pm52 °FCool.3 mph77%29.32 "Hg25 mi
5:00 pm51 °FCool.2 mph71%29.32 "Hg22 mi
4:00 pm53 °FCool.3 mph68%29.32 "Hg28 mi
3:00 pm52 °FLots of rain. Cloudy.5 mph75%29.32 "Hg9 mi
2:00 pm53 °FCool.6 mph73%29.35 "Hg19 mi
1:00 pm55 °FCool.7 mph67%29.35 "Hg22 mi
12:00 pm52 °FCool.7 mph77%29.35 "Hg28 mi
11:00 am54 °FCool.14 mph64%29.35 "Hg25 mi
10:00 am53 °FCool.9 mph74%29.32 "Hg28 mi
9:00 am50 °FCool.6 mph87%29.32 "Hg31 mi
8:00 am49 °FRain showers. Cloudy.7 mph92%29.32 "Hg19 mi
4:00 am45 °FQuite cool.3 mph94%29.44 "Hg18 mi
3:00 am44 °FQuite cool.5 mph94%29.44 "Hg31 mi
2:00 am45 °FCool.6 mph95%29.44 "Hg28 mi
Weather by CustomWeather, © 2020

See weather overview